sat.trackr.live / text

‹ back to catalog

ONEWEB-0154

NORAD 48045 · 2021-025D

PAYLOAD ACTIVE UNKNOWN

§ Identity

Operator
Country
UK
Launch date
2021-03-25
Launch site
VOSTO
Launch vehicle
Mass (kg)
RCS (m²)

Purposes: comms

External: N2YO · Heavens-Above · Gunter

§ Orbital elements

Epoch: 2026-05-25T00:08:26.666880Z

Period
109.63 min
Inclination
87.8941°
Eccentricity
0.0001725
Mean motion
13.13469584 rev/d
Perigee alt
1,208.5 km
Apogee alt
1,211.1 km
Semi-major
7,587.9 km
B*
-2.3877e-4
RAAN
324.8388°
Arg perigee
89.5849°
Mean anomaly
270.5478°
Rev number
25,046

§ Raw data

ONEWEB-01541 48045U 21025D   26145.00586420 -.00000074  00000+0 -23877-3 0  99962 48045  87.8941 324.8388 0001725  89.5849 270.5478 13.13469584250468

JSON: /api/v1/satellites/48045 · /tle

For live sub-satellite position, see the globe view (requires WebGL).

§ Visibility from observer

Set your observer location to see the next 7 days of passes ≥ 10°. The values pass through the URL so the page stays shareable.

No JS? Fill the form by hand. The geolocation button needs JavaScript.